Weather History for KPQN - March, 2014

Change the Weather History Date:

Saturday, March 29, 2014

  Actual Average Record
Temperature  
Mean Temperature 32 °F -  
Max Temperature 46 °F - - ()
Min Temperature 17 °F - - ()
Degree Days  
Heating Degree Days 34    
Moisture  
Dew Point 24 °F    
Average Humidity 75    
Maximum Humidity 93    
Minimum Humidity 57    
Precipitation  
Precipitation 0.04 in - - ()
Sea Level Pressure  
Sea Level Pressure 30.11 in    
Wind  
Wind Speed 7 mph (South)    
Max Wind Speed 23 mph    
Max Gust Speed 29 mph    
Visibility 10 miles    
Events      
T = Trace of Precipitation, MM = Missing Value Source: NWS Daily Summary

Daily Weather History Graph

Daily Weather History Graph

Search for Another Location

Airport or City:

Trip Planner

Search our weather history database for the weather conditions in past years. The results will help you decide how hot, cold, wet, or windy it might be!

Date:

Astronomy

Mar. 29, 2014 Rise Set
Actual Time 7:11 AM CDT 7:48 PM CDT
Civil Twilight 6:42 AM CDT 8:17 PM CDT
Nautical Twilight 6:08 AM CDT 8:52 PM CDT
Astronomical Twilight 5:33 AM CDT 9:27 PM CDT
Moon 6:23 AM CDT (3/29) 6:53 PM CDT (3/29)
Length of Visible Light 13h 34m
Length of Day
12h 36m
Waning Crescent, 2% of the Moon is Illuminated
Mar 29
Waning Crescent
Mar 30
New
Apr 7
First Quarter
Apr 15
Full
Apr 22
Last Quarter

Hourly Weather History & Observations

Time (CDT) Temp. Windchill Dew Point Humidity Pressure Visibility Wind Dir Wind Speed Gust Speed Precip Events Conditions
12:13 AM 21.2 °F - 15.8 °F 80% 30.24 in 10.0 mi Calm Calm - N/A   Clear
12:33 AM 21.2 °F - 17.6 °F 86% 30.24 in 10.0 mi Calm Calm - N/A   Clear
12:53 AM 21.2 °F - 17.6 °F 86% 30.23 in 10.0 mi Calm Calm - N/A   Clear
1:13 AM 19.4 °F - 17.6 °F 93% 30.23 in 10.0 mi Calm Calm - N/A   Clear
1:33 AM 19.4 °F - 15.8 °F 86% 30.23 in 10.0 mi Calm Calm - N/A   Clear
1:53 AM 19.4 °F - 17.6 °F 93% 30.23 in 10.0 mi Calm Calm - N/A   Clear
2:13 AM 19.4 °F - 15.8 °F 86% 30.23 in 10.0 mi Calm Calm - N/A   Clear
2:33 AM 19.4 °F - 15.8 °F 86% 30.23 in 10.0 mi Calm Calm - N/A   Clear
2:53 AM 19.4 °F - 15.8 °F 86% 30.22 in 10.0 mi Calm Calm - N/A   Clear
3:13 AM 19.4 °F - 17.6 °F 93% 30.22 in 10.0 mi Calm Calm - N/A   Clear
3:33 AM 19.4 °F - 15.8 °F 86% 30.21 in 10.0 mi Calm Calm - N/A   Clear
3:53 AM 17.6 °F - 15.8 °F 93% 30.22 in 10.0 mi Calm Calm - N/A   Clear
4:13 AM 17.6 °F - 15.8 °F 93% 30.22 in 10.0 mi Calm Calm - N/A   Clear
4:33 AM 19.4 °F - 15.8 °F 86% 30.22 in 10.0 mi Calm Calm - N/A   Clear
4:53 AM 19.4 °F - 15.8 °F 86% 30.22 in 10.0 mi Calm Calm - N/A   Clear
5:13 AM 19.4 °F - 15.8 °F 86% 30.22 in 10.0 mi Calm Calm - N/A   Clear
5:33 AM 17.6 °F - 15.8 °F 93% 30.22 in 10.0 mi Calm Calm - N/A   Clear
5:53 AM 17.6 °F - 15.8 °F 93% 30.22 in 10.0 mi Calm Calm - N/A   Clear
6:13 AM 17.6 °F - 15.8 °F 93% 30.21 in 10.0 mi Calm Calm - N/A   Clear
6:33 AM 17.6 °F - 15.8 °F 93% 30.21 in 10.0 mi Calm Calm - N/A   Clear
6:53 AM 17.6 °F - 15.8 °F 93% 30.21 in 10.0 mi Calm Calm - N/A   Clear
7:13 AM 17.6 °F - 15.8 °F 93% 30.22 in 10.0 mi Calm Calm - N/A   Clear
7:33 AM 17.6 °F - 15.8 °F 93% 30.23 in 10.0 mi Calm Calm - N/A   Clear
7:54 AM 17.6 °F - 14.0 °F 86% 30.24 in 10.0 mi Calm Calm - N/A   Clear
8:13 AM 19.4 °F - 15.8 °F 86% 30.24 in 10.0 mi Calm Calm - N/A   Clear
8:33 AM 21.2 °F 16.4 °F 17.6 °F 86% 30.24 in 10.0 mi SSW 3.5 mph - N/A   Clear
8:54 AM 24.8 °F 17.9 °F 17.6 °F 74% 30.24 in 10.0 mi SSW 5.8 mph - N/A   Clear
9:13 AM 24.8 °F 16.1 °F 19.4 °F 80% 30.23 in 10.0 mi SSW 8.1 mph - N/A   Clear
9:33 AM 26.6 °F 16.8 °F 21.2 °F 80% 30.22 in 10.0 mi South 10.4 mph - N/A   Clear
9:53 AM 28.4 °F 19.1 °F 19.4 °F 69% 30.21 in 10.0 mi South 10.4 mph - N/A   Clear
10:13 AM 30.2 °F 21.9 °F 21.2 °F 69% 30.21 in 10.0 mi SSW 9.2 mph - N/A   Clear
10:33 AM 30.2 °F 20.8 °F 19.4 °F 64% 30.20 in 10.0 mi SSW 11.5 mph - N/A   Clear
10:53 AM 30.2 °F 21.3 °F 19.4 °F 64% 30.20 in 10.0 mi South 10.4 mph - N/A   Clear
11:13 AM 32.0 °F 22.5 °F 21.2 °F 64% 30.19 in 10.0 mi SSW 12.7 mph - N/A   Clear
11:33 AM 33.8 °F 24.3 °F 23.0 °F 65% - 10.0 mi South 13.8 mph - 0.02 in   Clear
11:53 AM 33.8 °F 23.9 °F 23.0 °F 65% 30.17 in 10.0 mi SSW 15.0 mph - 0.01 in   Clear
12:13 PM 35.6 °F 25.9 °F 24.8 °F 65% 30.16 in 10.0 mi South 16.1 mph - 0.02 in   Clear
12:33 PM 35.6 °F 25.9 °F 26.6 °F 70% 30.16 in 10.0 mi SSW 16.1 mph - N/A   Clear
12:53 PM 37.4 °F 28.2 °F 26.6 °F 65% 30.15 in 10.0 mi SSW 16.1 mph 23.0 mph N/A   Clear
1:13 PM 37.4 °F 27.5 °F 26.6 °F 65% 30.13 in 10.0 mi SSW 18.4 mph - N/A   Clear
1:33 PM 39.2 °F 29.8 °F 28.4 °F 65% 30.12 in 10.0 mi SSW 18.4 mph - N/A   Clear
1:53 PM 39.2 °F 29.6 °F 28.4 °F 65% 30.11 in 10.0 mi South 19.6 mph 23.0 mph N/A   Clear
2:13 PM 41.0 °F 31.9 °F 30.2 °F 65% 30.09 in 10.0 mi South 19.6 mph - N/A   Clear
2:33 PM 42.8 °F 34.3 °F 30.2 °F 61% 30.08 in 10.0 mi South 19.6 mph - N/A   Clear
2:53 PM 42.8 °F 34.3 °F 32.0 °F 66% 30.06 in 10.0 mi South 19.6 mph 23.0 mph N/A   Clear
3:13 PM 44.6 °F 36.6 °F 33.8 °F 66% 30.05 in 10.0 mi South 19.6 mph 26.5 mph N/A   Clear
3:33 PM 44.6 °F 36.9 °F 33.8 °F 66% 30.04 in 10.0 mi South 18.4 mph - N/A   Clear
3:53 PM 46.4 °F 38.7 °F 33.8 °F 62% 30.03 in 10.0 mi South 20.7 mph 24.2 mph N/A   Clear
4:13 PM 46.4 °F 38.3 °F 33.8 °F 62% 30.02 in 10.0 mi South 23.0 mph 26.5 mph N/A   Clear
4:33 PM 46.4 °F 39.0 °F 33.8 °F 62% 30.01 in 10.0 mi South 19.6 mph 28.8 mph N/A   Clear
4:53 PM 46.4 °F 39.0 °F 33.8 °F 62% 29.99 in 10.0 mi South 19.6 mph - N/A   Clear
5:13 PM 46.4 °F 38.3 °F 32.0 °F 57% 29.99 in 10.0 mi South 23.0 mph 26.5 mph N/A   Clear
5:33 PM 46.4 °F 39.0 °F 33.8 °F 62% 29.98 in 10.0 mi South 19.6 mph 26.5 mph N/A   Clear
5:53 PM 46.4 °F 38.7 °F 33.8 °F 62% 29.97 in 10.0 mi South 20.7 mph 25.3 mph N/A   Clear
6:13 PM 46.4 °F 38.5 °F 33.8 °F 62% 29.97 in 10.0 mi South 21.9 mph 28.8 mph N/A   Clear
6:33 PM 46.4 °F 40.4 °F 33.8 °F 62% 29.97 in 10.0 mi South 13.8 mph - N/A   Clear
6:53 PM 44.6 °F 36.6 °F 33.8 °F 66% 29.97 in 10.0 mi South 19.6 mph 24.2 mph N/A   Clear
7:13 PM 44.6 °F 36.9 °F 33.8 °F 66% 29.97 in 10.0 mi South 18.4 mph 23.0 mph N/A   Clear
7:33 PM 42.8 °F 35.1 °F 33.8 °F 70% 29.96 in 10.0 mi South 16.1 mph - N/A   Clear
7:53 PM 42.8 °F 35.1 °F 33.8 °F 70% 29.94 in 10.0 mi South 16.1 mph - N/A   Clear
8:13 PM 41.0 °F 33.1 °F 32.0 °F 70% 29.95 in 10.0 mi South 15.0 mph - N/A   Clear
8:33 PM 41.0 °F 32.5 °F 32.0 °F 70% 29.94 in 10.0 mi South 17.3 mph 23.0 mph N/A   Clear
8:53 PM 41.0 °F 32.5 °F 32.0 °F 70% 29.94 in 10.0 mi South 17.3 mph 21.9 mph N/A   Clear
9:13 PM 39.2 °F 30.2 °F 32.0 °F 75% 29.93 in 10.0 mi South 17.3 mph 24.2 mph N/A   Clear
9:33 PM 39.2 °F 30.2 °F 30.2 °F 70% 29.93 in 10.0 mi South 17.3 mph - N/A   Clear
9:53 PM 39.2 °F 29.8 °F 30.2 °F 70% 29.92 in 10.0 mi South 18.4 mph - N/A   Clear
10:13 PM 39.2 °F 29.6 °F 30.2 °F 70% 29.91 in 10.0 mi South 19.6 mph 26.5 mph N/A   Clear
10:33 PM 39.2 °F 29.6 °F 30.2 °F 70% 29.90 in 10.0 mi South 19.6 mph 25.3 mph N/A   Clear
10:53 PM 39.2 °F 29.8 °F 30.2 °F 70% 29.89 in 10.0 mi South 18.4 mph 26.5 mph N/A   Clear
11:13 PM 39.2 °F 29.6 °F 30.2 °F 70% 29.88 in 10.0 mi South 19.6 mph 25.3 mph N/A   Clear
11:33 PM 39.2 °F 29.6 °F 30.2 °F 70% 29.88 in 10.0 mi South 19.6 mph 25.3 mph N/A   Clear
11:53 PM 39.2 °F 30.2 °F 30.2 °F 70% 29.87 in 10.0 mi South 17.3 mph 25.3 mph N/A   Clear